Cortez, CO

3:01 PM MDT on March 23, 2017 (GMT -0600)
Cortez Municipal

Weather History for KCEZ - June, 2013

Change the Weather History Date:

Saturday, June 29, 2013

  Actual Average Record
Temperature  
Mean Temperature 77 °F 68 °F  
Max Temperature 98 °F 89 °F 98 °F (1998)
Min Temperature 56 °F 48 °F 39 °F (2005)
Degree Days  
Heating Degree Days 0 0  
Month to date heating degree days 12 74  
Since 1 June heating degree days 12 74  
Since 1 July heating degree days 6406 6441  
Cooling Degree Days 12 4  
Month to date cooling degree days 117 55  
Year to date cooling degree days 117 60  
Since 1 June cooling degree days 117 55  
Growing Degree Days 26 (Base 50)    
Moisture  
Dew Point 40 °F    
Average Humidity 35    
Maximum Humidity 59    
Minimum Humidity 11    
Precipitation  
Precipitation 0.00 in 0.02 in 0.08 in (2004)
Month to date precipitation T 0.47  
Year to date precipitation 3.33 5.61  
Sea Level Pressure  
Sea Level Pressure 29.93 in    
Wind  
Wind Speed 4 mph (East)    
Max Wind Speed 23 mph    
Max Gust Speed 30 mph    
Visibility 10 miles    
Events      
T = Trace of Precipitation, MM = Missing Value Source: NWS Daily Summary

Daily Weather History Graph

Daily Weather History Graph

Search for Another Location

Airport or City:

Trip Planner

Search our weather history database for the weather conditions in past years. The results will help you decide how hot, cold, wet, or windy it might be!

Date:

Astronomy

Jun. 29, 2013 Rise Set
Actual Time 5:56 AM MDT 8:39 PM MDT
Civil Twilight 5:26 AM MDT 9:09 PM MDT
Nautical Twilight 4:47 AM MDT 9:48 PM MDT
Astronomical Twilight 4:03 AM MDT 10:31 PM MDT
Moon 12:18 AM MDT (6/29) 1:01 PM MDT (6/29)
Length of Visible Light 15h 43m
Length of Day
14h 42m
Waning Gibbous, 55% of the Moon is Illuminated
Jun 29
Waning Gibbous
Jun 29
Last Quarter
Jul 8
New
Jul 15
First Quarter
Jul 22
Full

Hourly Weather History & Observations

Time (MDT) Temp. Dew Point Humidity Pressure Visibility Wind Dir Wind Speed Gust Speed Precip Events Conditions
12:53 AM 78.1 °F 39.9 °F 25% 29.96 in 10.0 mi SSW 10.4 mph - N/A   Clear
1:53 AM 73.0 °F 41.0 °F 31% 29.97 in 10.0 mi Calm Calm - N/A   Clear
2:53 AM 66.9 °F 41.0 °F 39% 29.97 in 10.0 mi NE 8.1 mph - N/A   Clear
3:53 AM 64.9 °F 39.0 °F 39% 29.96 in 9.0 mi Calm Calm - N/A   Clear
4:53 AM 60.1 °F 41.0 °F 49% 30.00 in 10.0 mi Calm Calm - N/A   Clear
5:53 AM 55.9 °F 41.0 °F 57% 30.02 in 9.0 mi SE 3.5 mph - N/A   Clear
6:53 AM 60.1 °F 43.0 °F 53% 30.01 in 10.0 mi NNE 4.6 mph - N/A   Clear
7:53 AM 66.9 °F 43.0 °F 42% 30.01 in 8.0 mi East 3.5 mph - N/A   Clear
8:53 AM 75.0 °F 45.0 °F 34% 29.99 in 9.0 mi Calm Calm - N/A   Clear
9:53 AM 82.0 °F 41.0 °F 23% 29.96 in 10.0 mi Calm Calm - N/A   Clear
10:53 AM 86.0 °F 42.1 °F 21% 29.94 in 10.0 mi Calm Calm - N/A   Clear
11:53 AM 90.0 °F 37.9 °F 16% 29.93 in 10.0 mi Calm Calm - N/A   Clear
12:53 PM 91.9 °F 37.0 °F 15% 29.90 in 10.0 mi Variable 3.5 mph - N/A   Clear
1:53 PM 93.9 °F 37.9 °F 14% 29.86 in 10.0 mi Variable 5.8 mph 19.6 mph N/A   Clear
2:53 PM 98.1 °F 35.1 °F 11% 29.83 in 10.0 mi West 8.1 mph - N/A   Clear
3:53 PM 96.1 °F 32.0 °F 10% 29.84 in 10.0 mi Variable 5.8 mph 17.3 mph N/A   Clear
4:15 PM 89.6 °F 39.2 °F 17% 30.14 in 10.0 mi NNE 19.6 mph 28.8 mph N/A   Clear
4:53 PM 89.1 °F 37.9 °F 16% 29.87 in 10.0 mi East 10.4 mph - N/A   Clear
5:53 PM 87.1 °F 37.0 °F 17% 29.88 in 10.0 mi Variable 3.5 mph - N/A   Scattered Clouds
6:53 PM 84.0 °F 37.9 °F 19% 29.88 in 10.0 mi SSW 3.5 mph - N/A   Clear
7:53 PM 80.1 °F 43.0 °F 27% 29.88 in 10.0 mi North 3.5 mph - N/A   Clear
8:53 PM 77.0 °F 44.1 °F 31% 29.89 in 10.0 mi SE 3.5 mph - N/A   Partly Cloudy
9:53 PM 80.1 °F 39.9 °F 24% 29.90 in 10.0 mi East 9.2 mph - N/A   Partly Cloudy
10:53 PM 78.1 °F 42.1 °F 28% 29.87 in 10.0 mi SSE 18.4 mph 29.9 mph N/A   Clear
11:53 PM 75.9 °F 42.1 °F 30% 29.90 in 10.0 mi North 4.6 mph - N/A   Clear